Juliana Airport, Saint Maartin

7:29 PM AST on February 05, 2016 (GMT -0400)
Princess Juliana International

Weather History for TNCM - February, 2014

Change the Weather History Date:

Monday, February 17, 2014

  Actual Average Record
Temperature  
Mean Temperature 78 °F -  
Max Temperature 83 °F 82 °F 84 °F (1997)
Min Temperature 74 °F 72 °F 68 °F (2008)
Cooling Degree Days 14    
Growing Degree Days 28 (Base 50)    
Moisture  
Dew Point 67 °F    
Average Humidity 65    
Maximum Humidity 74    
Minimum Humidity 46    
Precipitation  
Precipitation 0.01 in 0.06 in - ()
Sea Level Pressure  
Sea Level Pressure 30.03 in    
Wind  
Wind Speed 11 mph ()    
Max Wind Speed 15 mph    
Max Gust Speed 25 mph    
Visibility 6.6 miles    
Events      
Averages and records for this station are not official NWS values.
T = Trace of Precipitation, MM = Missing Value Source: Averaged Metar Reports

Daily Weather History Graph

Daily Weather History Graph

Search for Another Location

Airport or City:

Trip Planner

Search our weather history database for the weather conditions in past years. The results will help you decide how hot, cold, wet, or windy it might be!

Date:

Astronomy

Feb. 17, 2014 Rise Set
Actual Time 6:38 AM AST 6:14 PM AST
Civil Twilight 6:16 AM AST 6:36 PM AST
Nautical Twilight 5:50 AM AST 7:02 PM AST
Astronomical Twilight 5:25 AM AST 7:27 PM AST
Moon 8:33 PM AST (2/17) 8:04 AM AST (2/17)
Length of Visible Light 12h 20m
Length of Day
11h 35m
Waning Gibbous, 93% of the Moon is Illuminated
Feb 17
Waning Gibbous
Feb 22
Last Quarter
Mar 1
New
Mar 8
First Quarter
Mar 16
Full

Hourly Weather History & Observations

Time (AST) Temp. Heat Index Dew Point Humidity Pressure Visibility Wind Dir Wind Speed Gust Speed Precip Events Conditions
12:00 AM 77.0 °F - 66.2 °F 69% 30.04 in 6.2 mi East 15.0 mph - N/A   Partly Cloudy
1:00 AM 77.0 °F - 66.2 °F 69% 30.04 in 6.2 mi East 13.8 mph - N/A   Partly Cloudy
2:00 AM 77 °F - 66 °F 62% 30.03 in 22 mi East 15.0 mph - -   Partly Cloudy
2:00 AM 77.0 °F - 66.2 °F 69% 30.01 in 6.2 mi East 15.0 mph - N/A   Scattered Clouds
3:00 AM 77.0 °F - 66.2 °F 69% 30.01 in 6.2 mi East 12.7 mph - N/A   Partly Cloudy
4:00 AM 77.0 °F - 66.2 °F 69% 30.01 in 6.2 mi East 11.5 mph - N/A   Partly Cloudy
5:00 AM 76 °F - 66 °F 64% 30.02 in 22 mi East 10.4 mph - -   Partly Cloudy
5:00 AM 75.2 °F - 66.2 °F 73% 30.01 in 6.2 mi East 10.4 mph - N/A   Scattered Clouds
6:00 AM 75.2 °F - 66.2 °F 73% 30.04 in 6.2 mi ENE 10.4 mph - N/A   Partly Cloudy
7:00 AM 77.0 °F - 66.2 °F 69% 30.04 in 6.2 mi ENE 12.7 mph - N/A   Scattered Clouds
8:00 AM 78 °F - 67 °F 60% 30.06 in 16 mi ENE 11.5 mph - -   Mostly Cloudy
8:00 AM 77.0 °F - 66.2 °F 69% 30.04 in 6.2 mi ENE 11.5 mph - N/A   Mostly Cloudy
9:00 AM 78.8 °F - 68.0 °F 69% 30.06 in 6.2 mi East 8.1 mph - N/A   Partly Cloudy
10:00 AM 78.8 °F - 68.0 °F 69% 30.06 in 6.2 mi East 10.4 mph 23.0 mph N/A   Mostly Cloudy
11:00 AM 81 °F - 66 °F 52% 30.08 in 25 mi East 12.7 mph - -   Partly Cloudy
11:00 AM 80.6 °F 82.7 °F 66.2 °F 61% 30.06 in 6.2 mi East 12.7 mph 25.3 mph N/A   Scattered Clouds
12:00 PM 82.4 °F 83.9 °F 64.4 °F 54% 30.04 in 6.2 mi East 11.5 mph - N/A   Partly Cloudy
1:00 PM 82.4 °F 84.6 °F 66.2 °F 58% 30.01 in 6.2 mi East 12.7 mph - N/A   Partly Cloudy
2:00 PM 82 °F - 65 °F 46% 30.01 in 28 mi ESE 12.7 mph - -   Partly Cloudy
2:00 PM 82.4 °F 84.6 °F 66.2 °F 58% 30.01 in 6.2 mi East 11.5 mph - N/A   Partly Cloudy
3:00 PM 80.6 °F 82.7 °F 66.2 °F 61% 29.98 in 6.2 mi East 10.4 mph - N/A   Partly Cloudy
4:00 PM 80.6 °F 82.7 °F 66.2 °F 61% 29.98 in 6.2 mi East 9.2 mph - N/A   Partly Cloudy
5:00 PM 80 °F - 67 °F 55% 30.00 in 28 mi East 8.1 mph - -   Scattered Clouds
5:00 PM 80.6 °F 82.7 °F 66.2 °F 61% 29.98 in 6.2 mi East 8.1 mph - N/A   Partly Cloudy
6:00 PM 78.8 °F - 68.0 °F 69% 30.01 in 6.2 mi East 9.2 mph - N/A   Partly Cloudy
7:00 PM 77.0 °F - 68.0 °F 74% 30.01 in 6.2 mi East 12.7 mph - N/A   Partly Cloudy
8:00 PM 78 °F - 67 °F 60% 30.03 in 28 mi East 12.7 mph - -   Scattered Clouds
8:00 PM 77.0 °F - 66.2 °F 69% 30.01 in 6.2 mi East 13.8 mph - N/A   Partly Cloudy
9:00 PM 77.0 °F - 66.2 °F 69% 30.04 in 6.2 mi East 10.4 mph - N/A   Partly Cloudy
10:00 PM 77.0 °F - 68.0 °F 74% 30.04 in 6.2 mi East 10.4 mph - N/A   Partly Cloudy
11:00 PM 77 °F - 68 °F 67% 30.05 in 34 mi East 11.5 mph - -   Partly Cloudy
11:00 PM 77.0 °F - 68.0 °F 74% 30.04 in 6.2 mi East 11.5 mph - N/A   Partly Cloudy